Weather History for Montrose, CO

Change the Weather History Date:

Saturday, November 16, 2013

  Actual Average Record
Temperature  
Mean Temperature 40 °F 37 °F  
Max Temperature 48 °F 50 °F 66 °F (1999)
Min Temperature 31 °F 25 °F 14 °F (1997)
Degree Days  
Heating Degree Days 25 28  
Month to date heating degree days 377 393  
Since 1 July heating degree days 995 984  
Cooling Degree Days 0 0  
Month to date cooling degree days 0 0  
Year to date cooling degree days 891 643  
Moisture  
Dew Point 33 °F    
Average Humidity 73    
Maximum Humidity 100    
Minimum Humidity 45    
Precipitation  
Precipitation T in 0.02 in 0.43 in (1996)
Month to date precipitation 0.08 0.46  
Year to date precipitation 9.83 10.30  
Sea Level Pressure  
Sea Level Pressure 29.60 in    
Wind  
Wind Speed 8 mph (South)    
Max Wind Speed 24 mph    
Max Gust Speed 31 mph    
Visibility 10 miles    
Events Rain    
T = Trace of Precipitation, MM = Missing Value Source: NWS Daily Summary

Daily Weather History Graph

Daily Weather History Graph

Search for Another Location

Airport:

Trip Planner

Search our weather history database for the weather conditions in past years. The results will help you decide how hot, cold, wet, or windy it might be!

Date:

Astronomy

Nov. 16, 2013 Rise Set
Actual Time 6:54 AM MST 4:57 PM MST
Civil Twilight 6:26 AM MST 5:26 PM MST
Nautical Twilight 5:54 AM MST 5:58 PM MST
Astronomical Twilight 5:22 AM MST 6:29 PM MST
Moon 4:34 PM MST (11/16) 5:54 AM MST (11/16)
Length of Visible Light 10h 59m
Length of Day
10h 02m
Waxing Gibbous, 99% of the Moon is Illuminated
Nov 16
Waxing Gibbous
Nov 17
Full
Nov 25
Last Quarter
Dec 2
New
Dec 9
First Quarter

Hourly Weather History & Observations

Time (MST) Temp. Windchill Dew Point Humidity Pressure Visibility Wind Dir Wind Speed Gust Speed Precip Events Conditions
12:53 AM 37.0 °F 29.8 °F 35.1 °F 93% 29.61 in 10.0 mi SSE 10.4 mph - 0.00 in   Overcast
1:53 AM 36.0 °F 30.3 °F 35.1 °F 97% 29.61 in 10.0 mi South 6.9 mph - N/A   Overcast
2:53 AM 37.0 °F 31.6 °F 35.1 °F 93% 29.60 in 10.0 mi SSE 6.9 mph - 0.00 in   Overcast
3:53 AM 36.0 °F 31.1 °F 34.0 °F 93% 29.61 in 10.0 mi South 5.8 mph - 0.00 in   Overcast
4:53 AM 35.1 °F 30.1 °F 33.1 °F 92% 29.62 in 10.0 mi South 5.8 mph - N/A   Mostly Cloudy
5:53 AM 33.1 °F - 32.0 °F 96% 29.60 in 10.0 mi Calm Calm - N/A   Partly Cloudy
6:53 AM 33.1 °F - 30.9 °F 92% 29.60 in 10.0 mi Calm Calm - N/A   Clear
7:53 AM 37.0 °F 31.6 °F 30.0 °F 76% 29.60 in 10.0 mi ESE 6.9 mph - N/A   Clear
8:53 AM 44.1 °F 38.1 °F 28.9 °F 55% 29.61 in 10.0 mi South 11.5 mph - N/A   Clear
9:53 AM 46.9 °F - 27.0 °F 46% 29.61 in 10.0 mi South 15.0 mph 21.9 mph N/A   Mostly Cloudy
10:53 AM 46.9 °F - 28.9 °F 50% 29.59 in 10.0 mi South 16.1 mph 24.2 mph N/A   Overcast
11:53 AM 46.0 °F 41.9 °F 30.9 °F 56% 29.56 in 10.0 mi WSW 8.1 mph 21.9 mph N/A   Overcast
12:53 PM 43.0 °F 35.1 °F 34.0 °F 71% 29.57 in 10.0 mi South 17.3 mph 26.5 mph 0.00 in Rain Light Rain
1:53 PM 45.0 °F 36.4 °F 32.0 °F 60% 29.55 in 10.0 mi SSW 23.0 mph 28.8 mph 0.00 in   Mostly Cloudy
2:53 PM 44.1 °F 39.0 °F 33.1 °F 65% 29.53 in 10.0 mi SSW 9.2 mph - 0.00 in Rain Light Rain
3:53 PM 43.0 °F 41.3 °F 34.0 °F 71% 29.54 in 10.0 mi East 3.5 mph - 0.00 in   Overcast
4:53 PM 44.1 °F 40.8 °F 34.0 °F 68% 29.53 in 10.0 mi ENE 5.8 mph - 0.00 in   Overcast
5:53 PM 45.0 °F 40.1 °F 32.0 °F 60% 29.57 in 10.0 mi West 9.2 mph - N/A   Overcast
6:53 PM 39.9 °F 33.4 °F 34.0 °F 79% 29.61 in 10.0 mi North 10.4 mph - N/A   Overcast
7:53 PM 39.0 °F 34.8 °F 35.1 °F 86% 29.65 in 10.0 mi North 5.8 mph - 0.00 in   Overcast
8:53 PM 39.9 °F - 34.0 °F 79% 29.65 in 10.0 mi Calm Calm - N/A   Overcast
9:53 PM 37.9 °F 35.5 °F 34.0 °F 86% 29.66 in 10.0 mi Variable 3.5 mph - N/A   Mostly Cloudy
10:53 PM 37.9 °F 30.9 °F 34.0 °F 86% 29.67 in 10.0 mi SSE 10.4 mph - N/A   Mostly Cloudy
11:53 PM 37.9 °F 33.5 °F 34.0 °F 86% 29.69 in 10.0 mi South 5.8 mph - N/A   Overcast